Regional Weather Roundup
Issued by NWS

Home | Current Version | Previous Version | Graphics & Text | Print | Product List | Glossary On
Versions: 1 2 3 4 5 6 7 8 9 10 11 12 13 14 15 16 17 18 19 20 21 22 23 24 25 26 27 28 29 30 31 32 33 34 35 36 37 38 39 40 41 42 43 44 45 46 47 48
000
ASUS45 KBOU 221707
RWRCO

WEATHER ROUNDUP FOR COLORADO
NATIONAL WEATHER SERVICE DENVER/BOULDER CO
1100 AM MDT MON SEP 22 2014

NOTE: "FAIR" INDICATES FEW OR NO CLOUDS BELOW 12000 FEET WITH NO
SIGNIFICANT WEATHER AND/OR OBSTRUCTIONS TO VISIBILITY.

COZ001>005-013-030-031-221800-
...NORTHWEST COLORADO...

CITY           SKY/WX    TMP DP  RH WIND       PRES   REMARKS
CRAIG          CLOUDY    58  49  72 VRB3      30.30F
HAYDEN         CLOUDY    54  46  76 CALM      30.32F
MEEKER         CLOUDY    57  50  77 E5        30.32F
MOUNT WERNER   NOT AVBL
STEAMBOAT SPGS CLOUDY    52  48  85 CALM      30.35F
WALDEN         CLOUDY    52  45  76 SW18G28   30.38R
$$

COZ006>008-011-221800-
...WEST CENTRAL VALLEYS...

CITY           SKY/WX    TMP DP  RH WIND       PRES   REMARKS
GRAND JUNCTION MOSUNNY   64  58  80 CALM      30.25R
MONTROSE       SUNNY     71  56  58 E3        30.29F
EAGLE          PTSUNNY   61  55  82 CALM      30.33F
RIFLE          TSTM      57  52  83 NE3       30.29R
DELTA          SUNNY     72  58  61 E5        30.26S
NUCLA          MOSUNNY   66  55  68 NW3       30.33F
$$

COZ017>023-064>068-221800-
...SOUTHWEST COLORADO...

CITY           SKY/WX    TMP DP  RH WIND       PRES   REMARKS
DURANGO        CLOUDY    62  56  80 VRB3      30.38R
CORTEZ         MOSUNNY   71  58  63 S9        30.32S
PAGOSA SPRINGS CLOUDY    58  56  94 CALM      30.44S
TELLURIDE      NOT AVBL
WOLF CREEK PAS HVY SNOW  41  41 100 SW31G46   30.63S VSB<1/4
$$

COZ009-010-012-014-032>034-037-058>063-221800-
...CENTRAL COLORADO...

CITY           SKY/WX    TMP DP  RH WIND       PRES   REMARKS
ASPEN          PTSUNNY   62  50  64 W3        30.35F
BUENA VISTA    PTSUNNY   58  51  77 SE6       30.40S
COPPER MTN     PTSUNNY   48  37  66 SW9       30.61F
BERTHOUD PASS  PTSUNNY   39  37  93 W24G33    30.62F
COTTONWOOD PAS LGT RAIN  54  50  87 NE3       30.50S
GUNNISON       PTSUNNY   57  50  77 NE3       30.41F
KREMMLING      RAIN      55  48  76 W6        30.35F
LEADVILLE      CLOUDY    51  44  77 CALM      30.48F
MONARCH PASS   FOG       41  41 100 SW24G30   30.72F VSB<1/4
SALIDA         CLOUDY    59  56  89 N3        30.44F
SUNLIGHT       FOG       50  46  87 CALM      30.54F VSB 3/4
WILKERSON PASS NOT AVBL
$$

COZ069>075-221800-
...SAN LUIS VALLEY/SANGRE DE CRISTO MOUNTAINS...

CITY           SKY/WX    TMP DP  RH WIND       PRES   REMARKS
ALAMOSA        LGT RAIN  64  52  64 SW10      30.38F
LA VETA PASS   PTSUNNY   50  45  81 S13G22    30.52S
SAGUACHE       NOT AVBL
$$

COZ035-036-038>040-221800-
...NORTHERN COLORADO FRONT RANGE...

CITY           SKY/WX    TMP DP  RH WIND       PRES   REMARKS
DENVER INTL AP CLOUDY    62  56  80 S9        30.19F
DMNS CITY PARK   N/A     64  57  78 S5        30.19F
AURORA         PTSUNNY   64  58  82 S9        30.22F
FRONT RANGE AP NOT AVBL
ERIE MUNI ARPT NOT AVBL
BOULDER MUN AP PTSUNNY   63  54  72 CALM      30.18F
CENTENNIAL     PTSUNNY   65  54  67 SE7       30.23F
BROOMFIELD     PTSUNNY   66  37  34 S5        30.21F
FORT COLLINS   PTSUNNY   63  52  67 CALM      30.20F
LONGMONT       PTSUNNY   68  53  57 CALM      30.19F
$$

COZ041-046-047-076>085-087-088-221800-
...PIKES PEAK/PALMER DIVIDE AND SOUTHERN FOOTHILLS...

CITY           SKY/WX    TMP DP  RH WIND       PRES   REMARKS
COLO. SPRINGS  CLOUDY    61  50  67 NE7       30.30F
A. F. ACADEMY  PTSUNNY   59  52  77 S6        30.31F
ELLICOTT       NOT AVBL
FALCON         CLOUDY    58  51  75 E3        30.34F
FORT CARSON    PTSUNNY   61  49  65 NE8       30.28F
LIMON          CLOUDY    66  55  67 S16G23    30.26F
MONUMENT HILL  LGT RAIN  54  52  94 S10       30.31F
TRINIDAD       PTSUNNY   72  55  55 SW15G24   30.26F
$$

COZ042>045-048>051-090-091-221800-
...NORTHEAST COLORADO...

CITY           SKY/WX    TMP DP  RH WIND       PRES   REMARKS
GREELEY ARPT   CLOUDY    64  48  55 S3        30.19F
AKRON          LGT RAIN  60  55  83 S10       30.22S
BURLINGTON     PTSUNNY   70  48  45 S24G36    30.24F
WRAY           RAIN      64  52  65 S10G17    30.22F
STERLING       CLOUDY    68  55  64 S15       30.17F
HOLYOKE        RAIN      63  48  59 S12G21    30.21F
FORT MORGAN    CLOUDY    65  51  58 S10       30.19F
$$

COZ086-089-092>099-221800-
...SOUTHEAST COLORADO...

CITY           SKY/WX    TMP DP  RH WIND       PRES   REMARKS
PUEBLO         CLOUDY    67  51  56 W3        30.22F
LA JUNTA       MOSUNNY   79  57  46 SW13      30.19F
LAMAR          PTSUNNY   74  53  48 S25G33    30.21F
SPRINGFIELD      N/A     67  49  52 S24G31    30.31S
$$



USA.gov is the U.S. government's official web portal to all federal, state and local government web resources and services.